Temp
-7 -7 -7 -7 -7 -8 -8 -8 -8 -8 -9 -9 -9 -9 -9 -9 -9 -9 -10 -10 -10 -9 -9 -9 -9 -9 -9 -9 -9 -8 -8 -8 -8 -9 -9 -9 -9 -9 -8 -8 -8 -8 -7 -7 -7 -7 -7 -7 -7 -7 -7 -7 -7 -7 -7 -8 -8 -8 -8 -8 -8 -9 -9 -9 -9 -9 -9 -9 -9 -9 -8 -9 -9 -9
-7 -7 -7 -7 -7 -8 -8 -8 -8 -8 -9 -9 -9 -9 -9 -9 -9 -9 -10 -10 -10 -10 -9 -9 -9 -9 -9 -9 -9 -9 -9 -9 -9 -9 -9 -9 -9 -9 -9 -8 -8 -8 -8 -7 -7 -7 -8 -8 -8 -8 -8 -8 -8 -8 -8 -8 -8 -8 -8 -8 -8 -9 -9 -9 -9 -9 -9 -9 -9 -9 -9 -9 -9 -9
-7 -7 -7 -7 -7 -8 -8 -8 -8 -8 -8 -8 -8 -9 -9 -9 -9 -9 -9 -10 -10 -10 -10 -9 -9 -9 -9 -9 -9 -9 -9 -9 -9 -9 -9 -9 -9 -9 -9 -9 -8 -8 -8 -8 -8 -8 -8 -8 -8 -8 -8 -8 -8 -8 -8 -8 -8 -8 -8 -8 -9 -9 -9 -9 -9 -9 -10 -10 -10 -10 -9 -9 -9 -9
-7 -7 -6 -7 -7 -8 -8 -8 -8 -8 -8 -8 -8 -8 -9 -9 -9 -9 -9 -9 -10 -10 -10 -10 -9 -9 -9 -9 -9 -9 -9 -9 -9 -9 -9 -9 -9 -9 -9 -9 -9 -8 -8 -8 -8 -8 -8 -8 -8 -8 -8 -8 -8 -8 -8 -8 -8 -8 -8 -9 -9 -9 -9 -9 -9 -10 -10 -10 -10 -10 -10 -9 -9 -9
-7 -7 -6 -6 -7 -7 -8 -8 -8 -9 -9 -9 -8 -9 -9 -9 -9 -9 -9 -9 -10 -10 -10 -10 -10 -9 -9 -9 -9 -9 -9 -9 -9 -9 -9 -9 -9 -9 -9 -9 -9 -9 -9 -9 -9 -9 -9 -9 -9 -8 -8 -8 -8 -9 -9 -9 -9 -8 -8 -9 -9 -9 -9 -9 -10 -10 -10 -10 -10 -10 -10 -10 -10 -9
-7 -7 -7 -7 -7 -7 -7 -8 -9 -9 -9 -9 -8 -9 -9 -9 -8 -8 -8 -9 -9 -9 -9 -9 -10 -9 -9 -10 -9 -9 -9 -9 -9 -9 -10 -10 -10 -10 -9 -9 -9 -9 -9 -9 -9 -9 -9 -9 -9 -9 -8 -8 -8 -8 -9 -9 -9 -9 -9 -9 -9 -10 -10 -10 -10 -10 -10 -10 -10 -10 -10 -10 -10 -10
-7 -7 -7 -7 -7 -8 -8 -8 -9 -9 -9 -9 -8 -8 -9 -9 -9 -8 -8 -8 -9 -9 -9 -9 -9 -9 -10 -10 -10 -10 -9 -10 -10 -10 -10 -10 -10 -10 -10 -10 -10 -10 -9 -9 -9 -9 -9 -9 -9 -9 -9 -9 -9 -9 -9 -9 -9 -9 -9 -9 -10 -10 -10 -10 -10 -10 -10 -10 -10 -10 -10 -10 -10 -10
-7 -7 -7 -7 -7 -8 -8 -8 -9 -9 -9 -9 -9 -9 -8 -9 -9 -8 -8 -8 -9 -9 -10 -10 -10 -10 -10 -10 -10 -10 -10 -10 -10 -10 -10 -10 -10 -10 -10 -10 -10 -10 -10 -9 -9 -9 -9 -9 -9 -8 -9 -9 -9 -9 -9 -9 -9 -9 -9 -10 -10 -10 -10 -10 -11 -11 -11 -11 -10 -10 -10 -10 -10 -10
-7 -7 -7 -7 -7 -7 -8 -8 -8 -9 -9 -9 -10 -9 -8 -8 -9 -8 -8 -8 -9 -9 -10 -10 -10 -10 -10 -10 -11 -10 -10 -10 -11 -10 -11 -11 -11 -10 -10 -10 -10 -10 -10 -9 -9 -9 -9 -8 -9 -9 -9 -9 -9 -9 -9 -10 -10 -10 -10 -10 -10 -10 -10 -11 -11 -11 -11 -11 -11 -11 -10 -10 -10 -10
-7 -7 -7 -7 -7 -7 -8 -8 -8 -8 -9 -9 -9 -9 -8 -8 -8 -8 -8 -8 -9 -9 -9 -10 -10 -10 -11 -11 -11 -11 -11 -11 -11 -11 -11 -11 -11 -11 -10 -10 -10 -10 -9 -9 -9 -9 -9 -9 -9 -9 -9 -9 -9 -10 -10 -10 -10 -10 -10 -10 -11 -11 -11 -11 -11 -11 -11 -11 -11 -11 -11 -11 -11 -11
-7 -7 -7 -7 -7 -7 -8 -8 -8 -8 -9 -9 -8 -8 -8 -8 -8 -8 -8 -8 -9 -9 -9 -9 -10 -10 -11 -11 -11 -11 -11 -11 -11 -11 -12 -12 -11 -11 -10 -10 -10 -10 -9 -9 -9 -9 -9 -9 -10 -10 -10 -10 -10 -10 -11 -11 -11 -11 -11 -11 -11 -11 -11 -11 -11 -12 -12 -12 -12 -11 -11 -11 -11 -11
-7 -7 -7 -7 -7 -7 -7 -8 -8 -9 -9 -8 -8 -8 -8 -8 -8 -8 -9 -9 -9 -9 -9 -10 -10 -10 -11 -11 -11 -11 -11 -12 -12 -12 -12 -12 -11 -11 -10 -10 -10 -10 -10 -10 -10 -10 -10 -10 -10 -10 -10 -11 -11 -11 -11 -11 -12 -12 -12 -12 -12 -12 -12 -12 -12 -12 -12 -12 -12 -12 -12 -12 -12 -12
-7 -7 -8 -8 -8 -8 -8 -8 -9 -9 -9 -8 -8 -8 -8 -8 -8 -8 -9 -9 -9 -9 -10 -10 -11 -11 -11 -11 -12 -12 -12 -12 -12 -12 -12 -11 -11 -11 -11 -11 -11 -11 -11 -10 -10 -11 -11 -11 -11 -11 -11 -11 -11 -11 -12 -12 -12 -12 -13 -13 -13 -12 -12 -12 -12 -12 -12 -12 -12 -13 -13 -13 -12 -12
-7 -8 -8 -8 -8 -9 -8 -9 -9 -9 -8 -8 -8 -8 -8 -8 -8 -8 -9 -9 -10 -10 -11 -11 -11 -11 -11 -12 -12 -12 -12 -12 -12 -12 -12 -12 -12 -11 -11 -11 -11 -11 -11 -11 -11 -11 -12 -12 -11 -11 -11 -12 -12 -12 -12 -12 -13 -13 -13 -13 -13 -13 -13 -13 -13 -13 -13 -13 -13 -13 -13 -13 -13 -13
-8 -8 -8 -8 -8 -8 -9 -9 -9 -9 -8 -8 -8 -8 -8 -8 -8 -9 -9 -9 -10 -10 -11 -11 -11 -11 -11 -12 -12 -12 -12 -12 -12 -12 -12 -11 -11 -11 -11 -11 -12 -12 -12 -11 -11 -12 -12 -12 -12 -12 -12 -12 -12 -13 -13 -13 -13 -13 -13 -13 -13 -13 -13 -13 -13 -13 -13 -13 -13 -13 -13 -13 -13 -13
-8 -8 -8 -8 -8 -8 -8 -8 -8 -8 -8 -8 -8 -8 -9 -9 -9 -9 -9 -10 -10 -11 -11 -12 -12 -12 -12 -11 -12 -12 -12 -12 -12 -12 -11 -11 -11 -11 -11 -11 -11 -12 -12 -12 -12 -12 -13 -13 -13 -12 -13 -13 -13 -13 -14 -14 -14 -14 -14 -14 -14 -14 -14 -14 -14 -13 -13 -13 -13 -13 -13 -13 -13 -13
-8 -8 -8 -8 -8 -8 -8 -8 -8 -8 -9 -9 -9 -9 -9 -9 -9 -9 -9 -9 -10 -10 -11 -12 -12 -12 -12 -12 -12 -12 -12 -12 -12 -11 -11 -11 -11 -12 -11 -11 -12 -12 -12 -12 -12 -12 -13 -13 -13 -13 -13 -13 -14 -14 -14 -14 -14 -14 -14 -14 -14 -14 -14 -14 -14 -14 -14 -14 -14 -14 -13 -13 -13 -13
-8 -8 -8 -8 -8 -8 -9 -8 -9 -9 -9 -9 -9 -9 -9 -9 -9 -9 -9 -9 -10 -10 -11 -12 -12 -12 -12 -12 -12 -12 -12 -12 -12 -12 -12 -12 -12 -12 -12 -12 -12 -13 -13 -13 -13 -13 -13 -14 -13 -13 -14 -14 -14 -15 -14 -14 -14 -14 -14 -14 -14 -14 -14 -14 -14 -14 -14 -14 -14 -14 -14 -13 -13 -13
-9 -8 -8 -8 -9 -9 -9 -9 -9 -9 -9 -9 -9 -9 -9 -9 -9 -9 -9 -10 -10 -10 -11 -12 -12 -11 -12 -12 -12 -12 -12 -12 -12 -12 -12 -13 -13 -13 -13 -13 -13 -14 -14 -14 -13 -13 -14 -14 -14 -14 -14 -14 -15 -15 -15 -15 -15 -15 -15 -15 -15 -15 -14 -14 -14 -14 -14 -14 -14 -14 -14 -14 -14 -13
-9 -9 -9 -9 -9 -9 -9 -9 -9 -9 -9 -9 -9 -9 -9 -9 -9 -10 -10 -10 -11 -11 -12 -12 -11 -11 -12 -12 -12 -13 -13 -13 -13 -13 -13 -13 -13 -13 -13 -14 -14 -14 -14 -14 -14 -13 -14 -14 -14 -14 -15 -15 -15 -15 -16 -16 -16 -15 -15 -15 -15 -15 -15 -15 -14 -14 -14 -14 -14 -14 -14 -14 -14 -14
-9 -9 -9 -9 -9 -9 -9 -9 -9 -9 -9 -9 -9 -10 -10 -10 -10 -10 -11 -11 -11 -11 -12 -12 -12 -12 -12 -12 -12 -13 -13 -13 -13 -13 -13 -13 -13 -13 -13 -13 -14 -14 -14 -15 -14 -14 -14 -14 -15 -15 -15 -15 -15 -15 -16 -16 -16 -16 -16 -15 -15 -15 -15 -15 -15 -15 -14 -14 -14 -14 -14 -14 -14 -14
-9 -9 -9 -9 -9 -9 -9 -9 -9 -9 -9 -10 -10 -10 -10 -10 -10 -11 -11 -11 -11 -12 -12 -12 -12 -13 -13 -13 -13 -13 -13 -13 -13 -13 -13 -13 -13 -13 -13 -13 -13 -14 -14 -15 -15 -14 -14 -15 -15 -15 -15 -15 -16 -16 -16 -16 -16 -16 -16 -16 -15 -15 -15 -15 -15 -15 -15 -14 -14 -14 -14 -14 -14 -14
-9 -9 -9 -9 -9 -9 -9 -9 -9 -10 -10 -10 -10 -10 -11 -11 -11 -11 -12 -12 -12 -12 -13 -13 -13 -13 -13 -13 -13 -13 -13 -13 -13 -13 -13 -13 -13 -13 -13 -13 -13 -14 -14 -15 -15 -14 -15 -15 -16 -16 -16 -15 -16 -16 -16 -16 -16 -16 -16 -16 -16 -16 -15 -15 -15 -15 -15 -15 -14 -14 -14 -14 -14 -14
-9 -9 -9 -9 -9 -9 -10 -10 -10 -10 -10 -11 -11 -11 -11 -11 -12 -12 -12 -12 -12 -12 -13 -13 -13 -13 -13 -13 -13 -13 -13 -14 -14 -14 -14 -14 -14 -14 -14 -14 -14 -14 -15 -15 -15 -15 -15 -15 -16 -16 -16 -15 -16 -16 -16 -16 -16 -16 -16 -16 -16 -16 -16 -15 -15 -15 -15 -15 -15 -15 -15 -14 -14 -14
-9 -9 -9 -9 -10 -10 -10 -10 -10 -10 -11 -11 -11 -11 -11 -12 -12 -12 -12 -12 -12 -13 -13 -13 -13 -13 -13 -13 -13 -14 -14 -14 -14 -14 -14 -14 -14 -14 -14 -14 -15 -15 -15 -15 -15 -15 -15 -15 -16 -16 -16 -16 -16 -16 -16 -16 -16 -16 -16 -16 -16 -16 -16 -16 -15 -15 -15 -15 -15 -15 -15 -15 -14 -14
-9 -9 -10 -10 -10 -10 -10 -10 -10 -11 -11 -11 -11 -12 -12 -12 -12 -12 -13 -13 -13 -13 -13 -13 -13 -13 -14 -14 -14 -14 -14 -14 -14 -14 -14 -15 -15 -15 -15 -15 -15 -15 -15 -16 -16 -15 -15 -16 -16 -16 -16 -16 -16 -16 -16 -16 -16 -16 -16 -16 -16 -16 -16 -16 -15 -15 -15 -15 -15 -15 -15 -14 -14 -14
-10 -10 -10 -10 -10 -10 -10 -10 -11 -11 -11 -12 -12 -12 -12 -13 -13 -13 -13 -13 -13 -13 -13 -14 -14 -14 -14 -14 -14 -15 -15 -15 -14 -15 -15 -15 -15 -15 -15 -15 -15 -15 -15 -15 -16 -16 -16 -16 -16 -16 -16 -16 -16 -16 -16 -16 -16 -16 -16 -16 -16 -16 -16 -15 -15 -15 -15 -15 -15 -15 -14 -14 -14 -13
-10 -10 -10 -10 -10 -10 -10 -10 -11 -11 -12 -12 -12 -13 -13 -13 -13 -13 -13 -14 -14 -14 -14 -14 -14 -14 -14 -15 -15 -15 -15 -15 -15 -15 -15 -15 -15 -15 -16 -16 -16 -16 -16 -16 -16 -16 -16 -16 -16 -16 -16 -16 -16 -16 -16 -16 -16 -16 -16 -16 -16 -16 -16 -16 -15 -15 -15 -15 -15 -14 -14 -13 -13 -13
-10 -10 -10 -10 -10 -10 -11 -11 -11 -12 -12 -13 -13 -13 -13 -13 -14 -14 -14 -14 -14 -14 -14 -14 -14 -15 -15 -15 -15 -15 -15 -15 -15 -15 -16 -16 -16 -16 -16 -16 -16 -16 -16 -16 -16 -16 -16 -16 -16 -16 -16 -16 -16 -16 -16 -16 -16 -16 -16 -16 -15 -16 -16 -15 -15 -15 -15 -15 -15 -14 -13 -13 -13 -13
-10 -10 -10 -10 -11 -11 -11 -11 -12 -12 -13 -13 -13 -14 -14 -14 -14 -14 -14 -14 -14 -14 -14 -14 -15 -15 -15 -15 -15 -15 -15 -16 -16 -16 -16 -16 -16 -16 -16 -16 -17 -17 -16 -16 -16 -16 -16 -16 -16 -16 -16 -16 -16 -16 -16 -16 -16 -16 -16 -15 -15 -15 -15 -15 -15 -15 -15 -14 -14 -14 -13 -13 -13 -13
-10 -10 -11 -11 -11 -11 -11 -12 -12 -13 -13 -13 -14 -14 -14 -14 -14 -14 -14 -14 -14 -14 -14 -15 -15 -15 -15 -15 -15 -16 -16 -16 -16 -16 -16 -16 -16 -16 -16 -17 -17 -17 -17 -17 -16 -16 -16 -16 -16 -16 -16 -17 -17 -17 -16 -16 -16 -16 -16 -16 -15 -15 -15 -15 -15 -15 -14 -14 -14 -14 -13 -13 -13 -13
-10 -11 -11 -11 -11 -11 -12 -12 -13 -13 -13 -14 -14 -14 -14 -14 -14 -14 -14 -15 -15 -15 -15 -15 -15 -15 -15 -16 -16 -16 -16 -16 -16 -16 -16 -16 -17 -17 -17 -17 -17 -17 -17 -17 -17 -17 -17 -17 -17 -17 -17 -17 -17 -17 -16 -16 -16 -16 -16 -16 -15 -15 -15 -15 -15 -14 -14 -14 -14 -13 -13 -13 -13 -13
-11 -11 -11 -11 -12 -12 -12 -13 -13 -13 -13 -14 -14 -14 -14 -14 -14 -14 -15 -15 -15 -15 -15 -16 -16 -16 -16 -16 -16 -16 -16 -17 -17 -17 -17 -17 -17 -17 -17 -17 -17 -17 -17 -17 -17 -17 -17 -17 -17 -17 -17 -17 -17 -17 -16 -16 -16 -16 -16 -15 -15 -15 -15 -15 -15 -15 -14 -13 -13 -13 -13 -13 -13 -13
-11 -11 -12 -12 -12 -12 -13 -13 -13 -13 -13 -14 -14 -14 -14 -14 -14 -15 -15 -15 -15 -15 -15 -15 -16 -16 -16 -16 -17 -17 -17 -17 -17 -17 -17 -17 -17 -17 -17 -17 -17 -17 -17 -17 -17 -17 -17 -17 -17 -17 -17 -17 -17 -17 -16 -16 -16 -16 -16 -16 -15 -15 -15 -15 -15 -15 -14 -13 -13 -13 -13 -13 -13 -13
-11 -12 -12 -12 -13 -13 -13 -13 -13 -14 -14 -14 -14 -14 -14 -14 -15 -15 -15 -15 -15 -15 -15 -15 -15 -16 -16 -17 -17 -17 -17 -18 -18 -17 -17 -17 -17 -17 -17 -17 -17 -17 -17 -17 -17 -17 -17 -17 -17 -17 -17 -17 -17 -17 -17 -17 -16 -16 -16 -16 -16 -16 -15 -15 -15 -15 -14 -13 -13 -13 -13 -13 -13 -13
-12 -12 -12 -13 -13 -13 -13 -13 -14 -14 -14 -14 -14 -14 -14 -14 -14 -15 -15 -15 -15 -15 -15 -15 -16 -16 -16 -17 -17 -17 -18 -18 -18 -18 -18 -18 -18 -18 -18 -18 -17 -17 -17 -17 -17 -17 -17 -17 -17 -17 -17 -17 -17 -17 -17 -17 -17 -16 -16 -16 -16 -16 -15 -15 -15 -15 -14 -13 -13 -13 -13 -13 -13 -13
-12 -12 -13 -13 -13 -13 -13 -14 -14 -14 -14 -14 -14 -14 -14 -14 -15 -15 -15 -15 -15 -15 -15 -15 -16 -16 -17 -17 -17 -18 -18 -18 -18 -18 -18 -18 -18 -18 -18 -18 -18 -18 -18 -17 -17 -17 -17 -17 -17 -17 -17 -17 -17 -17 -17 -17 -17 -16 -16 -16 -16 -16 -15 -15 -15 -15 -14 -13 -13 -13 -13 -13 -13 -13
-12 -13 -13 -13 -13 -14 -14 -14 -14 -14 -14 -14 -14 -14 -15 -15 -15 -15 -15 -15 -15 -15 -16 -16 -16 -17 -17 -17 -18 -18 -18 -18 -18 -18 -18 -18 -18 -18 -18 -18 -18 -18 -18 -18 -17 -17 -17 -17 -17 -17 -17 -17 -16 -16 -16 -16 -16 -16 -16 -16 -15 -15 -15 -14 -14 -15 -15 -14 -13 -13 -13 -13 -13 -13
-12 -13 -13 -13 -14 -14 -14 -14 -14 -14 -14 -14 -15 -15 -15 -15 -15 -15 -15 -15 -15 -15 -16 -16 -16 -17 -17 -18 -18 -18 -18 -18 -18 -18 -18 -18 -18 -18 -18 -18 -18 -18 -18 -18 -18 -18 -17 -17 -17 -17 -17 -17 -16 -16 -16 -16 -16 -16 -16 -16 -15 -15 -15 -14 -14 -14 -14 -14 -13 -13 -13 -13 -13 -13
-13 -13 -13 -14 -14 -14 -14 -15 -15 -14 -14 -15 -15 -15 -15 -15 -15 -15 -15 -15 -15 -16 -16 -16 -17 -17 -17 -18 -18 -18 -18 -18 -18 -18 -18 -18 -18 -18 -18 -18 -18 -18 -18 -18 -18 -18 -17 -17 -17 -17 -17 -17 -16 -16 -16 -16 -16 -16 -16 -16 -16 -15 -15 -14 -14 -14 -14 -14 -13 -13 -13 -13 -13 -13
-13 -13 -14 -14 -14 -15 -15 -15 -15 -15 -15 -15 -15 -15 -15 -15 -15 -15 -15 -15 -15 -16 -16 -16 -17 -17 -17 -18 -18 -18 -18 -18 -18 -18 -18 -18 -18 -18 -18 -18 -18 -18 -18 -18 -18 -18 -17 -17 -17 -17 -17 -17 -16 -16 -16 -16 -16 -16 -16 -16 -16 -16 -16 -15 -14 -13 -13 -13 -13 -13 -13 -12 -12 -12
-14 -14 -14 -14 -14 -15 -15 -15 -15 -15 -15 -15 -15 -15 -15 -15 -15 -15 -15 -16 -16 -16 -16 -16 -17 -17 -17 -17 -18 -18 -18 -18 -18 -18 -18 -18 -18 -18 -18 -18 -18 -18 -18 -18 -18 -18 -18 -17 -17 -17 -17 -17 -16 -16 -16 -16 -16 -16 -16 -16 -16 -16 -16 -16 -14 -13 -13 -13 -13 -13 -13 -12 -12 -12
-14 -14 -14 -14 -15 -15 -15 -15 -15 -15 -15 -15 -15 -15 -15 -15 -15 -16 -16 -16 -16 -16 -16 -16 -16 -17 -17 -17 -18 -18 -18 -18 -18 -18 -18 -18 -18 -18 -18 -18 -18 -18 -18 -18 -18 -18 -18 -17 -17 -17 -17 -17 -17 -16 -16 -16 -16 -16 -16 -16 -16 -16 -16 -16 -15 -14 -13 -13 -13 -13 -13 -12 -12 -13
-14 -14 -14 -14 -15 -15 -15 -15 -15 -15 -15 -15 -15 -15 -15 -15 -16 -16 -16 -16 -16 -16 -16 -16 -16 -17 -17 -17 -18 -18 -18 -18 -18 -18 -18 -18 -18 -18 -18 -18 -18 -18 -18 -18 -18 -18 -18 -17 -17 -17 -17 -17 -17 -16 -16 -16 -16 -16 -16 -16 -16 -16 -16 -16 -16 -15 -13 -13 -13 -13 -13 -13 -12 -13
-14 -14 -14 -14 -15 -15 -15 -15 -15 -15 -15 -15 -15 -15 -15 -16 -16 -16 -16 -16 -16 -16 -16 -16 -17 -17 -17 -17 -17 -18 -18 -18 -18 -18 -18 -18 -18 -18 -18 -18 -18 -18 -18 -18 -18 -18 -18 -18 -17 -17 -17 -17 -17 -16 -16 -16 -16 -16 -16 -16 -16 -16 -16 -16 -16 -15 -14 -13 -13 -13 -13 -13 -12 -12
Height
5896 5895 5893 5892 5891 5890 5889 5888 5887 5887 5886 5885 5884 5882 5880 5879 5878 5876 5875 5873 5872 5871 5871 5871 5872 5872 5871 5871 5871 5871 5870 5870 5870 5869 5869 5868 5867 5867 5866 5865 5864 5863 5862 5862 5861 5861 5860 5860 5859 5859 5859 5858 5858 5857 5857 5856 5856 5855 5856 5856 5856 5856 5857 5858 5858 5860 5861 5862 5863 5863 5864 5865 5866 5867
5893 5892 5891 5889 5888 5887 5885 5884 5883 5883 5882 5881 5879 5877 5876 5874 5873 5872 5870 5868 5867 5867 5867 5867 5867 5867 5867 5867 5867 5867 5866 5865 5865 5864 5864 5864 5863 5862 5862 5861 5860 5859 5858 5857 5857 5856 5856 5855 5855 5854 5854 5853 5853 5852 5852 5851 5851 5850 5850 5850 5851 5851 5851 5851 5852 5853 5854 5855 5857 5858 5859 5859 5860 5861
5889 5888 5887 5886 5885 5883 5882 5880 5879 5879 5878 5876 5875 5873 5871 5870 5868 5867 5866 5864 5862 5862 5862 5862 5862 5863 5863 5863 5863 5863 5862 5862 5861 5859 5858 5858 5858 5858 5857 5857 5856 5855 5854 5853 5852 5852 5851 5850 5850 5849 5848 5848 5847 5847 5846 5846 5846 5845 5844 5844 5844 5845 5845 5845 5846 5846 5847 5848 5849 5851 5852 5853 5854 5855
5885 5884 5884 5883 5882 5881 5879 5878 5876 5875 5873 5872 5871 5869 5867 5866 5864 5863 5862 5860 5858 5857 5858 5857 5857 5858 5858 5857 5857 5857 5857 5857 5857 5855 5854 5853 5853 5852 5852 5851 5851 5850 5849 5848 5847 5847 5846 5845 5844 5844 5843 5842 5842 5841 5841 5840 5840 5839 5839 5838 5838 5838 5838 5838 5839 5840 5840 5841 5842 5843 5845 5846 5847 5849
5882 5881 5880 5880 5879 5878 5876 5875 5874 5872 5869 5867 5866 5866 5864 5863 5861 5859 5857 5856 5854 5853 5853 5854 5853 5853 5853 5852 5851 5851 5851 5851 5851 5850 5849 5848 5848 5847 5847 5846 5845 5844 5843 5842 5841 5840 5840 5839 5839 5838 5837 5837 5836 5835 5834 5834 5833 5833 5833 5832 5831 5831 5831 5831 5832 5833 5833 5834 5835 5836 5837 5838 5840 5841
5880 5879 5877 5876 5875 5874 5872 5871 5870 5868 5866 5863 5862 5862 5861 5859 5857 5855 5853 5852 5850 5849 5848 5849 5849 5849 5848 5847 5846 5845 5845 5844 5844 5844 5843 5843 5843 5843 5843 5842 5840 5839 5838 5837 5836 5835 5834 5833 5832 5831 5831 5830 5829 5828 5827 5827 5827 5826 5826 5825 5825 5824 5824 5824 5825 5825 5826 5826 5827 5828 5829 5830 5832 5833
5878 5876 5875 5873 5872 5870 5868 5867 5866 5864 5862 5859 5858 5857 5856 5855 5854 5851 5850 5848 5847 5846 5844 5844 5844 5844 5844 5843 5842 5841 5839 5838 5838 5838 5838 5837 5837 5837 5837 5837 5836 5834 5833 5832 5831 5829 5828 5826 5825 5824 5824 5823 5822 5821 5821 5820 5820 5819 5819 5818 5818 5817 5816 5816 5817 5817 5817 5818 5818 5819 5820 5822 5823 5825
5875 5874 5872 5870 5869 5866 5864 5863 5862 5860 5858 5855 5853 5852 5851 5850 5849 5847 5845 5844 5844 5843 5841 5840 5840 5840 5839 5838 5837 5836 5834 5833 5832 5832 5832 5832 5832 5831 5830 5829 5829 5828 5827 5826 5824 5823 5822 5820 5819 5818 5817 5816 5815 5814 5814 5814 5813 5812 5811 5811 5810 5810 5809 5809 5808 5808 5809 5809 5810 5811 5812 5813 5814 5816
5871 5870 5868 5866 5865 5863 5861 5860 5858 5856 5854 5851 5849 5847 5846 5845 5844 5843 5841 5840 5840 5839 5838 5837 5836 5835 5834 5833 5832 5830 5829 5828 5828 5827 5826 5826 5827 5826 5824 5823 5822 5821 5821 5819 5818 5817 5815 5814 5813 5812 5810 5809 5808 5807 5806 5806 5805 5805 5804 5803 5802 5802 5801 5801 5800 5800 5800 5800 5801 5802 5803 5804 5805 5806
5866 5865 5864 5862 5861 5859 5857 5856 5854 5852 5850 5847 5845 5844 5842 5841 5839 5838 5836 5835 5834 5834 5833 5832 5831 5830 5829 5828 5826 5824 5823 5823 5823 5822 5821 5821 5821 5820 5819 5818 5816 5815 5814 5813 5812 5810 5809 5808 5806 5805 5804 5802 5801 5799 5798 5797 5796 5795 5795 5794 5794 5793 5792 5792 5791 5791 5791 5791 5792 5793 5794 5795 5796 5797
5863 5861 5860 5858 5857 5855 5853 5852 5850 5848 5846 5844 5842 5840 5839 5837 5835 5833 5831 5830 5829 5828 5827 5826 5825 5824 5823 5822 5820 5819 5817 5817 5816 5816 5816 5817 5816 5814 5813 5812 5811 5809 5808 5807 5806 5804 5803 5801 5800 5798 5797 5795 5794 5792 5790 5789 5787 5786 5785 5785 5784 5784 5783 5783 5783 5782 5783 5783 5783 5784 5785 5786 5787 5788
5860 5858 5857 5855 5853 5852 5849 5848 5846 5844 5842 5840 5839 5837 5834 5833 5831 5829 5827 5825 5823 5822 5821 5820 5819 5819 5818 5816 5814 5813 5812 5811 5811 5810 5811 5812 5812 5810 5808 5807 5805 5803 5802 5801 5799 5797 5795 5794 5792 5790 5789 5787 5785 5784 5782 5781 5780 5778 5777 5776 5775 5774 5774 5774 5774 5774 5774 5774 5775 5776 5777 5777 5778 5779
5856 5855 5853 5851 5850 5848 5845 5844 5842 5840 5838 5836 5835 5832 5830 5828 5826 5824 5822 5820 5818 5817 5816 5815 5814 5813 5812 5811 5809 5808 5807 5806 5806 5806 5806 5806 5806 5805 5804 5802 5799 5797 5796 5794 5792 5790 5787 5785 5784 5782 5780 5779 5776 5775 5774 5772 5771 5770 5768 5766 5765 5765 5765 5765 5765 5765 5765 5766 5767 5767 5768 5769 5770 5770
5852 5850 5849 5848 5846 5844 5842 5840 5839 5837 5835 5833 5830 5828 5826 5824 5822 5819 5817 5815 5813 5811 5810 5810 5809 5808 5807 5805 5804 5803 5802 5801 5801 5801 5800 5800 5799 5798 5797 5795 5792 5789 5788 5787 5785 5782 5777 5776 5776 5774 5772 5770 5768 5766 5765 5764 5763 5761 5759 5757 5756 5756 5756 5756 5756 5756 5756 5757 5758 5759 5760 5761 5761 5762
5848 5846 5845 5844 5842 5840 5839 5837 5835 5833 5831 5829 5826 5824 5822 5820 5817 5814 5812 5810 5808 5806 5805 5804 5803 5803 5802 5800 5799 5797 5796 5795 5795 5794 5793 5792 5792 5790 5789 5788 5785 5781 5778 5778 5778 5775 5769 5767 5768 5766 5763 5762 5760 5758 5756 5755 5753 5752 5750 5749 5748 5747 5747 5746 5747 5747 5748 5749 5750 5751 5752 5753 5753 5754
5844 5843 5841 5840 5838 5837 5835 5833 5831 5829 5827 5824 5822 5820 5817 5815 5812 5810 5807 5805 5803 5801 5800 5799 5798 5797 5796 5795 5794 5792 5791 5791 5790 5789 5788 5786 5784 5782 5780 5779 5777 5772 5770 5769 5770 5768 5763 5759 5759 5758 5755 5753 5751 5749 5747 5745 5744 5742 5741 5740 5739 5738 5738 5738 5738 5739 5740 5741 5742 5743 5744 5745 5745 5746
5840 5839 5837 5836 5834 5832 5830 5829 5827 5825 5822 5820 5818 5815 5812 5809 5807 5804 5802 5800 5798 5796 5795 5795 5794 5792 5791 5790 5788 5787 5787 5787 5785 5783 5782 5779 5777 5775 5773 5771 5768 5764 5761 5761 5762 5761 5756 5751 5751 5750 5747 5745 5743 5740 5738 5736 5734 5733 5732 5731 5731 5730 5730 5731 5731 5732 5732 5733 5734 5735 5736 5736 5737 5738
5835 5834 5833 5832 5830 5828 5826 5824 5822 5820 5817 5815 5813 5810 5807 5804 5801 5799 5797 5795 5794 5792 5791 5790 5789 5787 5786 5784 5784 5782 5781 5780 5778 5776 5775 5773 5771 5769 5766 5764 5761 5756 5753 5752 5753 5754 5748 5743 5743 5742 5739 5737 5735 5732 5729 5727 5726 5725 5724 5723 5722 5722 5723 5723 5724 5724 5725 5726 5726 5727 5728 5728 5729 5730
5831 5830 5828 5827 5826 5824 5822 5820 5817 5815 5813 5810 5808 5805 5802 5799 5797 5794 5792 5790 5789 5787 5786 5785 5784 5782 5781 5780 5779 5777 5774 5772 5770 5768 5767 5765 5762 5760 5759 5756 5752 5749 5745 5743 5744 5745 5741 5735 5735 5734 5731 5730 5728 5724 5720 5719 5717 5716 5716 5715 5715 5715 5715 5716 5716 5717 5717 5717 5718 5719 5719 5720 5720 5721
5828 5826 5824 5822 5821 5819 5817 5814 5812 5810 5808 5805 5803 5800 5797 5795 5792 5789 5786 5784 5783 5782 5780 5779 5778 5777 5776 5774 5772 5769 5767 5764 5762 5760 5758 5756 5753 5751 5750 5747 5744 5741 5737 5734 5733 5735 5733 5728 5727 5727 5725 5723 5721 5717 5713 5711 5710 5709 5709 5709 5708 5708 5708 5709 5709 5709 5709 5709 5710 5710 5710 5711 5712 5713
5823 5821 5819 5817 5815 5813 5811 5809 5807 5805 5803 5801 5798 5796 5793 5790 5787 5784 5782 5780 5778 5777 5775 5774 5773 5771 5769 5767 5765 5762 5759 5756 5754 5752 5750 5747 5745 5743 5741 5739 5736 5733 5730 5726 5725 5726 5725 5721 5719 5719 5717 5716 5713 5710 5707 5705 5704 5703 5703 5702 5702 5702 5702 5701 5701 5701 5701 5701 5702 5702 5702 5702 5703 5704
5819 5817 5815 5812 5810 5808 5806 5804 5802 5800 5798 5796 5794 5791 5789 5786 5783 5780 5778 5776 5774 5772 5770 5769 5766 5764 5762 5760 5757 5755 5752 5749 5746 5744 5742 5740 5737 5736 5734 5732 5730 5727 5723 5719 5718 5718 5717 5714 5712 5710 5710 5709 5706 5702 5701 5700 5698 5697 5697 5696 5696 5695 5695 5694 5694 5694 5694 5694 5693 5693 5694 5694 5694 5695
5814 5812 5810 5808 5806 5803 5801 5799 5797 5795 5793 5790 5788 5786 5784 5781 5778 5775 5773 5771 5769 5767 5765 5762 5760 5757 5755 5752 5750 5748 5745 5742 5739 5737 5735 5733 5731 5729 5727 5725 5724 5722 5718 5713 5711 5712 5710 5708 5705 5703 5703 5704 5701 5697 5695 5694 5692 5691 5690 5690 5690 5689 5688 5687 5687 5686 5686 5686 5686 5686 5686 5686 5685 5686
5810 5808 5805 5803 5801 5799 5796 5794 5792 5789 5787 5784 5782 5780 5778 5775 5773 5771 5768 5766 5764 5761 5759 5756 5754 5751 5748 5745 5743 5740 5738 5735 5733 5730 5727 5725 5723 5722 5721 5719 5717 5715 5712 5708 5706 5706 5704 5702 5700 5697 5696 5696 5695 5693 5691 5689 5687 5685 5684 5684 5683 5682 5681 5680 5680 5680 5679 5679 5678 5678 5678 5677 5676 5676
5804 5802 5800 5798 5796 5794 5792 5789 5786 5783 5781 5779 5776 5774 5772 5770 5767 5765 5763 5760 5758 5756 5753 5751 5748 5745 5742 5739 5736 5734 5731 5729 5726 5724 5721 5718 5716 5715 5714 5712 5710 5709 5706 5702 5700 5700 5698 5696 5695 5692 5690 5688 5688 5687 5685 5684 5682 5680 5678 5678 5677 5675 5675 5674 5673 5673 5673 5672 5672 5670 5669 5669 5668 5667
5800 5797 5796 5794 5792 5790 5787 5784 5781 5778 5775 5773 5771 5768 5766 5764 5762 5759 5757 5755 5752 5749 5747 5744 5741 5738 5735 5732 5730 5727 5725 5722 5720 5717 5715 5712 5710 5709 5707 5706 5704 5703 5700 5697 5695 5693 5692 5690 5688 5686 5684 5683 5682 5680 5679 5677 5676 5675 5673 5672 5670 5669 5668 5667 5667 5667 5666 5665 5664 5662 5661 5660 5659 5657
5795 5793 5791 5789 5787 5784 5781 5778 5775 5772 5770 5767 5765 5763 5761 5758 5756 5754 5751 5748 5746 5743 5740 5737 5734 5731 5729 5726 5724 5721 5719 5716 5714 5711 5709 5706 5705 5703 5700 5698 5697 5696 5695 5692 5689 5687 5686 5685 5683 5680 5679 5677 5676 5675 5673 5672 5670 5670 5668 5666 5664 5663 5662 5660 5660 5660 5659 5657 5655 5653 5651 5650 5649 5648
5791 5789 5786 5784 5781 5778 5776 5772 5769 5766 5764 5762 5760 5757 5755 5753 5750 5748 5745 5742 5739 5737 5734 5731 5728 5725 5723 5720 5718 5716 5713 5711 5708 5706 5703 5701 5699 5697 5695 5693 5692 5690 5689 5687 5685 5682 5681 5679 5678 5675 5673 5671 5670 5669 5667 5666 5665 5664 5663 5661 5660 5658 5656 5654 5653 5652 5650 5648 5646 5643 5641 5640 5639 5638
5786 5783 5781 5778 5775 5773 5770 5766 5763 5761 5759 5757 5755 5752 5750 5747 5744 5742 5739 5736 5733 5730 5727 5725 5722 5719 5717 5715 5712 5710 5708 5705 5703 5700 5698 5696 5694 5692 5691 5688 5687 5685 5684 5682 5680 5678 5676 5675 5673 5671 5669 5666 5664 5663 5661 5660 5660 5658 5657 5656 5655 5654 5650 5646 5645 5643 5640 5638 5637 5634 5631 5631 5630 5629
5779 5777 5774 5772 5769 5767 5764 5761 5758 5756 5754 5752 5750 5747 5744 5742 5739 5736 5733 5730 5727 5724 5721 5719 5716 5714 5711 5709 5706 5704 5702 5699 5697 5695 5693 5691 5689 5688 5686 5684 5682 5680 5679 5677 5674 5673 5671 5670 5668 5666 5664 5662 5660 5657 5655 5654 5654 5653 5651 5649 5649 5649 5645 5640 5637 5633 5629 5627 5627 5625 5623 5622 5622 5622
5773 5771 5769 5766 5764 5762 5759 5756 5754 5752 5749 5747 5745 5742 5739 5736 5733 5730 5727 5724 5721 5718 5715 5713 5710 5707 5705 5702 5700 5698 5696 5694 5692 5690 5688 5686 5684 5683 5682 5680 5678 5675 5674 5672 5670 5668 5666 5665 5663 5660 5659 5657 5655 5653 5650 5648 5647 5646 5645 5643 5641 5641 5640 5635 5631 5626 5620 5618 5619 5618 5616 5615 5615 5615
5768 5766 5764 5761 5759 5757 5754 5751 5749 5747 5745 5742 5739 5736 5733 5731 5728 5724 5721 5718 5715 5712 5709 5707 5704 5702 5699 5697 5695 5692 5690 5688 5687 5685 5683 5682 5680 5678 5677 5676 5674 5672 5670 5668 5666 5663 5661 5659 5658 5656 5654 5652 5650 5648 5645 5643 5641 5639 5639 5637 5635 5634 5632 5628 5625 5621 5615 5611 5612 5612 5610 5609 5609 5608
5763 5760 5758 5756 5754 5752 5749 5747 5745 5743 5740 5737 5733 5730 5727 5725 5723 5720 5717 5713 5710 5708 5705 5702 5700 5697 5694 5692 5689 5687 5685 5683 5681 5680 5678 5677 5675 5674 5673 5671 5669 5668 5666 5664 5662 5660 5658 5655 5653 5651 5649 5647 5645 5642 5639 5638 5637 5635 5633 5632 5630 5627 5624 5620 5617 5614 5609 5606 5606 5607 5605 5604 5603 5603
5757 5755 5753 5751 5749 5747 5744 5742 5740 5738 5735 5731 5728 5725 5723 5720 5719 5717 5713 5709 5706 5704 5701 5698 5695 5692 5689 5686 5684 5682 5680 5678 5677 5675 5674 5673 5671 5670 5668 5667 5665 5664 5662 5660 5658 5656 5655 5652 5650 5648 5645 5643 5641 5636 5632 5631 5631 5630 5629 5627 5624 5621 5619 5615 5611 5607 5603 5600 5600 5601 5601 5600 5599 5598
5752 5750 5748 5746 5744 5742 5739 5737 5735 5733 5730 5727 5725 5722 5720 5718 5715 5712 5709 5706 5703 5700 5696 5693 5690 5687 5684 5682 5679 5678 5676 5674 5673 5671 5670 5668 5667 5666 5664 5663 5661 5659 5658 5656 5654 5652 5651 5649 5647 5645 5643 5641 5638 5634 5627 5623 5623 5623 5623 5622 5619 5616 5613 5610 5606 5601 5597 5595 5595 5596 5596 5596 5595 5593
5746 5744 5743 5741 5739 5737 5734 5732 5730 5728 5725 5724 5721 5719 5717 5715 5712 5708 5705 5702 5699 5696 5692 5689 5685 5683 5680 5678 5676 5674 5672 5671 5669 5667 5666 5664 5663 5662 5660 5659 5657 5655 5654 5652 5650 5648 5647 5645 5643 5642 5640 5638 5637 5633 5627 5621 5617 5615 5615 5617 5615 5610 5607 5606 5602 5596 5592 5590 5590 5591 5592 5592 5591 5590
5741 5739 5737 5736 5734 5731 5729 5727 5725 5723 5721 5719 5717 5714 5712 5711 5708 5705 5701 5698 5695 5692 5688 5685 5681 5679 5676 5674 5672 5670 5668 5667 5665 5664 5662 5661 5659 5658 5656 5655 5653 5651 5650 5648 5646 5644 5643 5641 5638 5637 5636 5634 5633 5631 5628 5622 5616 5609 5606 5608 5608 5605 5601 5599 5597 5593 5588 5585 5586 5587 5587 5588 5587 5586
5736 5735 5733 5731 5728 5726 5724 5722 5720 5719 5717 5715 5713 5710 5708 5706 5704 5701 5698 5695 5692 5688 5685 5682 5678 5675 5673 5670 5668 5666 5665 5663 5662 5660 5659 5657 5656 5654 5653 5651 5650 5648 5646 5644 5642 5640 5638 5637 5634 5632 5631 5629 5628 5626 5624 5621 5616 5610 5603 5601 5600 5599 5595 5593 5591 5588 5584 5582 5582 5582 5583 5584 5584 5583
5732 5731 5729 5726 5724 5721 5720 5718 5716 5715 5713 5712 5710 5707 5705 5703 5700 5698 5695 5692 5689 5686 5682 5679 5676 5673 5670 5668 5666 5664 5662 5661 5659 5657 5656 5654 5652 5651 5650 5648 5646 5645 5643 5641 5638 5636 5635 5633 5631 5628 5627 5625 5623 5622 5620 5617 5614 5610 5604 5598 5594 5592 5590 5587 5586 5584 5580 5578 5578 5579 5579 5580 5580 5580
5728 5726 5724 5722 5719 5717 5716 5715 5713 5711 5710 5708 5707 5704 5702 5700 5697 5694 5692 5689 5686 5682 5679 5676 5673 5671 5668 5666 5664 5662 5660 5658 5656 5654 5653 5651 5649 5648 5646 5645 5643 5641 5639 5637 5635 5633 5631 5629 5627 5625 5623 5621 5619 5617 5615 5613 5610 5607 5602 5596 5591 5588 5584 5581 5580 5579 5577 5575 5575 5575 5576 5576 5577 5577
5724 5722 5720 5718 5716 5714 5712 5711 5710 5709 5707 5706 5704 5702 5699 5697 5695 5692 5689 5686 5683 5680 5677 5674 5671 5669 5666 5664 5662 5660 5657 5655 5653 5651 5650 5648 5646 5644 5643 5641 5639 5638 5636 5634 5632 5630 5628 5626 5623 5621 5619 5618 5616 5614 5612 5610 5608 5605 5601 5597 5592 5587 5582 5578 5576 5575 5574 5572 5572 5572 5572 5573 5574 5574
5719 5717 5716 5714 5712 5711 5709 5708 5707 5706 5705 5703 5701 5699 5697 5694 5692 5689 5687 5684 5681 5678 5675 5673 5670 5667 5664 5662 5660 5657 5655 5653 5651 5649 5647 5645 5643 5641 5639 5637 5636 5634 5632 5630 5628 5626 5624 5622 5620 5618 5616 5614 5612 5610 5609 5607 5605 5603 5600 5596 5592 5587 5582 5577 5573 5571 5571 5570 5569 5569 5569 5570 5570 5571
5714 5713 5711 5710 5708 5707 5706 5704 5704 5703 5701 5700 5698 5696 5694 5691 5689 5687 5684 5681 5679 5676 5674 5671 5668 5665 5662 5660 5657 5655 5653 5650 5648 5646 5644 5642 5640 5638 5636 5634 5632 5630 5629 5626 5624 5622 5620 5618 5616 5614 5612 5610 5608 5607 5605 5603 5601 5599 5597 5594 5591 5586 5582 5576 5571 5568 5567 5567 5567 5567 5567 5567 5568 5569
5711 5710 5708 5707 5705 5704 5703 5702 5701 5700 5698 5697 5695 5693 5692 5690 5687 5685 5682 5680 5677 5674 5672 5669 5666 5663 5660 5657 5655 5653 5650 5648 5646 5644 5642 5639 5637 5635 5633 5631 5629 5627 5625 5622 5620 5618 5616 5614 5612 5610 5609 5607 5605 5603 5602 5600 5598 5595 5593 5591 5588 5584 5580 5576 5571 5567 5565 5565 5565 5565 5565 5565 5566 5567
5708 5707 5705 5704 5702 5701 5700 5699 5698 5697 5696 5694 5693 5691 5689 5687 5685 5682 5680 5678 5675 5672 5669 5666 5664 5661 5658 5656 5653 5650 5648 5646 5643 5641 5639 5637 5634 5632 5630 5628 5625 5623 5621 5619 5616 5614 5612 5610 5608 5607 5605 5604 5602 5600 5598 5597 5595 5592 5590 5587 5584 5581 5578 5574 5570 5566 5564 5564 5563 5563 5563 5563 5564 5565
Wind_Speed
27 28 28 29 29 29 29 28 26 25 24 24 24 25 28 31 34 35 35 36 37 37 36 34 33 33 33 32 31 31 31 30 29 28 27 26 25 26 26 27 27 27 27 27 27 28 29 29 30 30 31 32 34 35 37 38 38 38 37 36 35 35 35 34 33 32 31 31 32 33 34 35 36 37
29 30 30 30 30 30 29 27 25 24 24 25 27 28 28 30 33 34 34 34 35 37 38 36 35 34 34 34 33 33 33 33 32 31 30 29 27 28 28 28 29 29 29 29 29 30 30 31 32 33 33 34 35 36 37 39 40 41 41 40 39 38 38 37 37 36 35 34 33 33 34 35 36 38
32 31 30 30 29 30 29 27 26 26 27 29 31 32 32 33 34 34 32 31 33 35 37 38 37 36 35 35 35 35 35 35 35 34 33 31 30 29 29 30 30 30 30 30 30 31 32 33 34 35 36 36 37 38 39 40 41 42 44 44 43 42 41 40 40 39 39 38 37 36 35 36 36 38
34 33 31 31 30 30 30 28 28 29 32 33 34 34 35 35 35 34 32 29 30 33 35 38 38 37 36 37 38 38 37 36 36 36 36 35 33 32 32 31 31 30 30 30 30 31 32 34 35 36 37 38 39 40 40 41 42 43 45 47 46 44 43 43 43 43 42 41 40 39 38 37 37 38
36 35 33 32 32 32 32 31 30 31 34 37 37 35 36 36 35 34 31 28 28 30 33 36 38 38 38 38 39 40 40 39 38 38 39 38 36 35 34 34 33 33 33 33 33 34 34 36 37 38 39 40 41 41 42 43 44 45 46 48 48 46 45 45 45 45 45 44 43 41 40 40 39 39
35 34 33 34 35 35 35 33 32 32 34 38 39 36 35 36 36 34 32 29 27 28 31 34 37 39 40 40 41 41 41 41 41 40 40 39 37 36 34 34 35 35 36 36 37 37 38 39 40 40 41 42 43 43 44 45 46 47 48 49 49 48 47 46 46 46 46 46 46 45 43 42 41 42
31 30 31 34 34 35 36 34 33 33 35 38 39 39 36 37 38 37 34 32 29 28 30 33 36 38 40 41 42 42 43 43 43 42 40 38 37 37 36 35 36 37 38 39 39 39 41 41 42 44 44 45 45 46 47 49 49 49 50 50 50 50 49 47 47 47 48 48 48 47 46 44 43 43
29 29 32 35 35 35 36 35 34 34 36 37 40 42 41 39 38 37 36 34 32 30 31 33 35 37 40 42 42 43 44 44 44 43 40 38 37 38 38 37 37 38 39 40 41 42 43 44 45 47 48 48 48 49 50 51 52 52 52 51 51 51 51 49 48 48 48 49 48 48 47 46 45 45
31 32 34 36 36 37 36 36 35 36 37 38 40 43 43 42 39 37 36 34 32 32 33 34 35 36 39 42 43 44 45 45 44 43 41 38 37 38 38 38 38 39 40 41 43 45 46 48 49 50 50 51 52 53 54 54 53 52 52 52 52 52 52 51 49 48 48 48 48 48 47 47 47 47
33 34 35 36 38 38 38 37 37 38 38 39 41 43 44 44 41 38 36 34 32 33 34 35 36 36 37 40 42 44 46 46 44 43 40 37 37 37 36 37 38 40 42 44 46 47 49 50 51 52 52 53 55 56 56 56 55 54 53 53 53 53 52 51 50 48 47 47 47 47 47 47 48 49
34 34 34 36 38 39 40 40 39 39 40 41 42 44 45 45 44 41 39 37 34 33 34 36 37 37 36 37 40 44 46 45 44 41 37 35 36 37 37 37 39 42 44 46 48 49 50 52 53 54 54 55 56 57 57 56 55 54 53 53 52 52 50 50 49 48 47 46 46 46 46 47 48 49
36 35 35 36 38 40 41 41 40 40 41 42 43 44 45 45 45 44 42 40 37 35 35 35 36 37 37 38 39 41 42 42 41 39 35 33 34 36 37 39 42 45 47 49 50 51 52 54 55 55 56 56 57 57 56 55 54 52 51 50 50 49 49 48 48 47 47 47 46 46 46 46 48 49
38 37 36 36 36 39 41 41 40 41 42 42 43 45 46 46 46 46 45 43 40 37 35 34 36 38 38 37 38 38 37 35 32 31 31 33 35 37 39 43 47 49 50 50 51 52 54 55 56 56 57 57 57 57 56 55 54 51 49 47 47 47 47 47 47 47 47 46 46 45 46 46 47 49
38 37 36 35 36 39 42 42 41 42 42 43 44 45 46 46 47 48 47 45 41 38 36 35 37 38 37 36 37 35 32 28 26 28 33 38 41 42 42 44 48 51 51 51 51 53 55 56 56 57 57 57 57 56 56 54 52 48 46 46 46 46 46 46 47 47 47 46 46 45 45 46 46 47
36 35 34 35 37 38 40 41 41 41 42 43 44 45 46 47 48 49 48 46 42 40 37 36 38 38 36 35 35 34 32 30 30 34 40 46 49 49 47 46 48 51 52 51 51 53 55 56 56 56 57 56 55 54 52 49 47 44 44 45 46 46 47 47 47 47 47 47 46 46 46 45 46 46
34 33 34 37 38 37 38 39 40 41 42 43 44 45 46 47 48 49 48 46 44 41 39 37 39 39 37 35 35 34 34 35 36 39 45 50 53 53 51 50 50 52 53 52 51 52 53 54 54 54 53 52 50 48 46 44 44 43 44 45 45 46 46 46 46 47 47 47 47 46 46 45 45 46
33 33 34 36 37 37 38 39 40 42 42 43 43 44 45 46 47 48 48 47 45 43 40 38 38 39 38 38 38 37 36 37 41 45 49 51 52 51 51 51 52 53 54 52 50 49 49 50 50 49 47 46 44 43 42 42 43 44 45 45 45 46 46 45 45 46 46 47 47 47 46 45 45 45
32 33 33 33 34 36 38 40 41 41 41 41 42 43 44 46 46 47 47 46 45 42 39 37 37 39 39 39 39 40 41 43 46 48 49 50 50 50 50 51 51 51 51 50 46 44 44 46 46 43 42 41 40 41 42 43 44 45 45 45 45 45 45 44 44 45 46 46 46 46 46 45 45 46
33 34 34 33 33 35 37 39 39 39 40 41 42 43 44 45 46 47 46 44 43 40 37 36 36 38 38 39 41 44 46 47 48 48 48 48 49 49 48 46 45 45 45 45 43 41 42 44 43 41 41 39 38 41 44 44 45 45 44 44 44 44 43 43 43 44 45 45 46 46 46 46 46 46
34 35 35 36 36 36 37 38 38 39 40 41 42 42 44 45 45 46 45 44 42 39 36 36 37 39 41 45 47 48 48 48 49 49 49 49 51 51 47 43 41 41 41 42 42 42 42 43 42 40 39 38 38 41 43 43 44 44 43 42 43 43 43 43 42 42 43 45 45 46 46 46 46 47
35 36 37 37 37 37 38 39 39 40 40 40 40 41 42 43 44 44 45 44 43 40 38 39 42 44 48 50 50 49 49 50 50 51 52 52 52 50 46 42 41 41 41 41 42 43 42 41 41 39 38 37 38 40 41 41 42 42 41 41 42 42 42 42 42 41 42 43 45 46 46 47 47 47
37 37 37 37 38 39 40 41 41 41 41 40 39 40 41 42 43 44 45 45 44 43 44 45 48 50 51 51 51 51 51 51 53 54 54 52 49 46 43 41 41 41 40 40 42 42 40 39 39 38 37 37 39 40 40 39 40 40 40 40 40 40 40 40 41 41 42 43 45 46 46 47 47 48
38 38 38 39 40 40 41 42 42 41 41 40 40 40 41 42 43 45 46 47 47 48 49 50 51 51 51 51 52 52 52 53 54 53 50 47 45 43 41 40 40 39 39 39 40 39 37 36 37 38 37 36 36 37 37 38 39 39 39 39 39 39 39 39 40 41 42 44 45 46 47 47 49 50
39 39 40 41 41 41 42 42 42 42 41 41 41 41 42 43 44 45 47 49 51 52 52 53 52 52 51 52 53 53 54 53 51 47 45 43 42 41 39 38 38 37 35 36 37 36 34 35 36 36 37 35 34 34 34 36 37 37 38 38 38 39 40 40 41 42 43 44 45 47 48 49 52 54
40 41 41 41 41 42 42 43 43 42 42 41 42 42 43 44 45 47 49 51 52 53 53 52 51 51 52 53 54 53 52 48 45 43 42 41 40 39 37 36 35 34 33 34 35 33 33 34 34 35 36 36 35 34 33 33 33 34 36 37 39 41 42 42 43 44 44 45 47 49 51 53 55 57
41 41 41 41 42 42 43 43 44 43 43 42 42 43 45 46 47 49 50 51 51 51 50 50 51 52 53 53 52 49 45 43 42 41 40 40 38 37 36 35 34 32 31 33 34 34 34 34 34 35 35 35 34 33 33 32 31 31 33 36 38 40 42 44 45 45 46 47 49 52 55 57 58 59
41 41 42 42 43 43 44 44 44 44 43 43 43 44 46 47 48 49 49 48 48 49 49 50 51 52 51 49 46 43 41 41 41 40 39 38 37 36 34 33 33 32 31 32 34 35 35 34 34 35 35 34 32 31 31 31 30 29 31 33 36 38 40 42 44 44 46 48 50 53 56 57 58 59
41 42 42 43 43 44 45 45 45 44 43 43 43 45 46 47 47 47 46 47 48 49 50 50 50 49 47 44 42 41 41 41 40 38 37 36 35 33 32 31 32 31 31 32 33 35 35 34 34 34 33 33 32 31 30 30 29 28 29 30 33 35 38 40 41 42 44 46 49 53 56 55 54 52
41 42 42 43 43 44 44 44 44 42 41 42 43 44 44 44 44 45 46 48 49 49 49 48 46 44 43 41 41 40 40 39 37 36 35 33 32 31 30 30 31 31 31 32 33 34 34 33 33 32 32 31 31 31 31 30 28 28 29 29 29 31 35 38 39 41 44 45 47 51 52 48 44 42
41 42 42 42 43 43 43 43 42 40 40 41 41 41 42 43 45 46 47 47 47 46 45 43 42 41 41 40 40 39 38 37 36 35 33 32 31 30 29 30 31 31 31 32 33 34 33 32 32 32 31 30 30 31 31 31 29 29 30 30 29 29 32 37 39 42 44 44 44 46 46 40 36 36
41 41 42 42 43 42 42 41 40 39 39 39 39 41 43 44 45 45 45 43 43 42 42 41 40 41 41 40 39 38 37 36 35 34 32 31 30 29 29 29 30 30 31 31 33 34 34 32 31 31 31 30 30 31 32 32 32 31 30 31 32 30 31 34 37 40 42 41 39 40 39 36 34 35
41 42 42 42 41 41 41 40 39 37 37 38 40 42 43 43 43 42 41 40 41 41 41 40 40 40 40 40 39 38 37 36 34 33 31 30 29 29 29 29 29 29 30 31 32 33 33 32 32 31 31 31 31 31 31 32 34 33 32 32 33 32 33 34 35 36 38 37 34 33 34 33 34 35
42 42 42 41 40 39 39 38 36 35 37 39 42 42 41 41 40 38 38 39 40 40 39 39 39 38 38 38 37 36 35 34 32 31 30 29 28 28 29 29 29 29 29 29 30 31 31 32 32 32 32 31 32 33 33 32 33 34 33 32 32 32 34 36 37 37 35 33 30 29 29 30 32 33
42 41 40 39 38 38 36 35 34 36 38 40 41 40 38 38 37 37 37 38 39 38 38 38 38 37 36 35 34 33 32 31 30 29 29 28 28 28 28 28 29 29 29 29 30 30 29 30 30 31 31 31 31 34 36 36 35 34 34 33 33 34 34 36 38 38 35 30 27 25 24 26 28 28
41 40 39 38 36 35 34 35 36 37 38 37 37 36 36 36 36 36 36 37 37 37 37 37 37 37 35 33 31 30 29 28 28 28 27 27 28 28 28 28 28 29 29 29 30 30 29 29 29 29 30 30 30 33 38 40 39 37 35 34 34 35 35 35 36 37 35 30 25 22 21 22 24 25
41 40 37 35 33 33 34 36 37 37 35 34 34 34 35 35 35 35 35 35 35 36 37 37 37 36 34 32 30 28 27 26 26 26 26 27 27 28 28 28 28 28 29 29 30 30 29 29 29 28 28 28 27 29 34 38 41 40 37 34 33 34 36 35 33 33 33 30 24 20 20 21 23 25
39 37 34 32 32 34 36 38 37 35 33 32 33 33 33 32 31 31 33 33 34 35 36 36 36 35 34 32 30 28 27 25 25 25 26 27 27 28 28 28 28 28 29 29 30 30 29 29 30 29 28 28 27 26 29 33 37 41 41 38 35 35 36 34 29 27 30 30 24 20 20 20 21 23
36 34 31 32 34 36 37 36 34 32 31 31 31 30 30 29 29 30 31 32 32 33 34 34 34 33 32 30 29 28 26 25 25 25 26 26 27 27 27 27 27 28 29 29 30 30 29 29 30 30 29 28 27 26 27 28 31 36 40 40 37 36 37 35 30 25 26 27 24 20 19 19 19 20
33 31 31 33 36 37 35 32 30 30 30 29 28 27 27 27 27 28 29 30 31 31 32 32 32 31 30 29 27 26 25 25 24 25 25 26 26 27 27 27 27 28 28 29 29 30 29 29 29 30 29 29 28 27 27 28 29 32 35 38 38 38 38 37 31 24 22 24 22 19 18 18 18 19
31 31 33 35 36 34 30 28 28 28 27 26 25 25 24 25 26 26 28 29 30 31 31 31 30 29 28 27 26 25 24 24 24 24 25 26 27 27 27 27 28 28 28 28 29 29 28 28 29 29 29 28 28 28 27 28 29 30 33 35 38 39 41 39 33 24 19 20 20 17 16 17 16 17
31 33 35 36 33 29 27 26 26 25 24 23 22 22 23 24 25 26 27 28 29 30 30 29 29 28 27 26 25 25 24 24 24 25 26 26 27 28 28 28 28 28 27 28 28 28 28 28 28 28 28 28 27 27 26 26 27 28 30 32 34 37 40 41 35 25 16 16 18 16 15 16 15 16
33 35 35 32 28 26 25 25 24 22 21 20 21 21 23 24 25 26 26 27 28 28 28 28 28 27 27 26 26 25 25 25 25 25 26 26 27 27 28 28 27 27 27 27 28 28 28 28 28 28 28 28 27 26 26 26 26 26 27 28 30 33 36 39 37 25 14 13 17 16 15 15 15 15
35 34 31 26 24 24 24 22 21 20 19 19 20 21 23 24 25 25 26 26 26 27 28 28 28 28 28 27 27 26 26 26 26 26 26 26 26 27 27 27 28 28 28 28 28 28 28 28 28 28 28 28 27 27 26 26 26 27 26 26 28 29 32 36 37 27 15 12 14 14 13 14 15 14
32 30 26 24 23 23 21 20 19 18 18 19 21 22 23 24 24 25 25 26 26 27 28 28 29 29 29 28 28 27 27 27 27 27 27 27 27 27 27 28 28 28 28 28 29 29 29 29 29 28 28 27 27 27 26 25 26 27 26 26 27 28 30 32 33 26 16 12 11 11 12 13 15 15
28 25 23 22 21 20 18 18 18 18 18 20 21 22 23 24 24 25 26 26 27 27 28 29 29 29 29 29 29 28 28 27 27 27 27 27 27 27 28 28 28 28 28 28 28 28 28 28 28 28 27 27 26 26 25 25 25 26 27 27 28 29 30 30 29 22 15 12 11 11 12 12 13 14
Wind_Direction
304 306 308 311 314 315 314 310 306 304 304 304 305 306 307 308 308 302 291 279 273 271 270 270 272 274 276 274 270 265 264 265 266 268 272 277 281 284 285 286 286 285 284 284 286 288 290 291 291 291 292 293 293 294 294 294 293 292 290 289 288 288 288 288 286 281 277 275 274 272 271 269 266 262
306 307 309 311 314 316 316 312 308 307 306 304 303 302 303 307 311 309 299 284 274 270 268 268 269 271 274 274 272 270 269 271 272 273 273 274 277 282 284 285 285 284 283 282 283 285 286 288 289 290 291 291 292 292 292 292 292 292 291 289 288 288 288 288 288 286 283 279 276 274 272 270 267 264
309 310 311 312 314 316 316 313 311 311 309 307 309 312 311 311 312 311 304 290 279 271 266 266 268 268 271 271 270 268 267 269 271 273 275 275 277 281 282 282 283 283 282 281 281 282 283 286 288 289 290 291 291 291 291 290 290 289 289 288 287 287 287 288 288 287 285 282 279 276 274 271 269 266
311 313 313 314 315 316 314 313 312 310 310 313 318 322 320 316 312 310 304 293 284 275 265 263 265 267 269 270 270 269 268 268 270 273 276 279 281 283 284 284 284 284 283 282 281 282 284 286 288 289 290 291 291 290 290 289 289 288 287 286 286 285 286 287 287 286 285 283 280 277 275 272 270 267
310 312 313 315 316 315 313 313 310 308 310 315 320 323 322 319 316 312 304 294 288 282 272 263 262 265 268 269 269 270 270 271 272 273 276 278 281 283 284 284 285 285 285 285 286 287 287 288 289 290 290 290 290 290 290 289 288 287 285 284 284 284 284 285 285 286 284 282 280 277 275 272 270 268
311 312 313 314 314 312 311 312 310 308 310 314 317 320 320 319 318 313 304 294 287 285 280 271 264 264 265 267 268 269 271 272 273 275 275 277 279 280 279 279 281 283 284 285 287 288 289 290 290 291 291 290 290 290 289 289 287 285 284 283 282 283 283 284 284 284 282 281 279 277 275 272 270 268
311 312 312 312 311 309 309 311 311 311 311 312 314 316 319 319 318 314 306 296 289 285 284 279 272 268 267 268 268 268 269 271 274 277 278 278 280 280 277 276 279 282 283 284 286 287 288 290 291 291 291 291 290 288 287 285 284 283 282 282 281 282 283 283 282 281 280 279 277 276 274 272 269 266
308 310 311 310 309 309 310 312 312 311 310 311 312 313 316 319 318 315 310 302 294 289 288 287 283 278 275 273 271 269 269 270 273 277 277 276 278 279 278 279 283 285 285 286 287 287 288 290 290 289 289 289 288 287 285 283 282 282 281 280 280 280 281 281 280 279 278 277 276 275 273 271 268 265
307 308 309 308 308 309 311 311 310 308 307 307 306 307 313 318 318 317 314 308 298 290 289 289 290 288 283 278 274 272 272 272 274 276 274 274 277 277 278 282 286 289 289 289 289 289 288 288 287 287 287 286 285 284 283 282 281 281 280 279 278 278 279 280 279 278 277 276 275 273 272 270 267 265
306 305 306 304 304 306 309 309 308 306 304 302 302 306 312 316 317 317 316 312 303 294 290 290 291 291 286 279 275 273 273 273 274 274 272 274 279 280 280 283 287 289 290 289 288 288 286 285 285 285 285 283 283 283 283 283 281 280 279 278 277 277 278 278 278 277 275 273 272 271 269 268 266 264
303 303 302 300 301 304 306 306 307 306 303 302 305 308 311 313 315 316 315 312 307 301 294 291 291 289 286 282 277 274 274 273 272 271 268 272 280 284 284 285 287 287 286 285 286 285 284 283 283 282 282 282 282 282 283 282 281 280 279 278 277 277 277 277 276 275 273 270 268 267 265 264 263 261
300 300 299 298 300 302 302 303 305 305 303 305 308 309 309 311 314 315 314 312 309 303 297 292 288 287 288 286 281 278 277 275 272 270 270 274 282 286 288 288 286 285 283 283 284 284 283 283 282 282 281 282 282 282 282 281 281 280 279 278 277 277 276 275 273 272 270 267 265 263 261 259 258 258
300 299 298 298 300 301 301 303 305 304 303 305 307 307 309 311 313 314 314 313 309 304 300 293 288 288 289 286 281 280 279 275 272 274 281 288 290 291 291 288 285 283 283 282 283 284 285 284 283 283 283 283 283 282 281 280 280 280 278 276 275 274 273 272 270 269 267 265 262 260 258 257 256 255
301 300 298 298 298 298 299 302 303 302 303 304 305 306 308 310 312 312 313 312 310 306 302 296 291 290 289 284 281 281 276 269 267 276 289 297 298 296 292 287 284 284 284 284 285 286 287 286 285 284 284 283 282 281 280 280 279 278 276 274 272 270 268 267 266 266 265 263 261 258 256 255 254 254
301 301 298 296 295 296 298 300 301 301 302 303 304 306 307 308 309 310 311 311 311 309 304 297 292 290 287 282 280 277 269 261 264 277 290 298 299 297 294 289 287 288 287 287 286 287 288 287 285 284 283 282 282 281 280 279 278 276 273 271 268 266 265 265 265 264 263 262 260 257 255 253 253 253
300 299 295 291 293 298 299 299 299 300 301 302 304 305 306 307 307 308 309 310 311 310 304 295 291 289 284 279 277 274 269 266 271 280 288 292 294 295 294 293 292 291 290 288 287 286 287 286 284 283 283 283 282 281 280 279 277 274 271 268 265 264 263 264 265 264 263 261 259 257 255 253 252 251
299 298 296 294 296 299 299 298 299 300 301 303 304 306 306 306 306 307 308 308 310 309 302 292 287 284 281 279 280 281 279 279 281 284 286 289 292 293 294 294 293 291 290 288 287 286 287 286 285 284 284 284 284 282 281 278 276 273 270 268 266 265 265 265 265 264 262 259 258 257 255 254 252 251
300 301 302 301 299 298 297 298 299 301 303 305 306 306 306 305 305 306 306 307 308 307 299 290 284 282 281 282 285 286 286 286 286 287 288 289 291 292 293 293 292 290 289 288 287 287 287 287 287 288 287 287 286 283 279 277 274 272 270 269 267 267 267 267 266 264 261 258 257 257 257 256 254 252
305 305 305 304 302 299 298 300 302 305 306 307 307 306 306 305 305 306 306 305 306 304 296 286 282 282 283 286 289 290 290 290 290 291 292 292 292 294 295 294 292 291 291 291 292 292 291 290 291 291 289 288 284 280 277 275 273 272 271 270 270 270 269 268 266 263 260 259 258 257 257 257 255 254
309 308 308 307 306 304 303 305 307 309 309 308 308 306 305 305 305 305 305 304 303 299 290 283 282 284 287 290 293 295 295 296 296 297 299 299 299 300 300 298 296 296 296 296 296 296 294 292 291 289 287 283 279 276 276 276 275 274 273 272 272 272 272 270 266 262 259 258 259 258 257 256 255 254
311 310 309 308 307 306 307 308 309 310 309 307 306 305 304 304 304 304 303 302 300 296 290 287 288 289 292 295 297 299 299 299 300 301 302 301 301 300 300 299 299 300 300 298 297 298 296 293 291 289 287 284 280 278 278 278 278 276 275 273 273 272 272 270 267 263 260 259 258 258 258 257 256 256
309 308 307 306 306 306 307 309 309 309 307 305 304 304 303 302 301 301 301 301 298 296 294 294 294 296 298 299 300 300 301 301 301 301 301 300 299 298 298 298 299 300 300 297 297 298 297 294 293 291 290 288 287 285 284 282 280 277 275 274 273 273 271 269 267 265 263 261 260 260 259 259 259 258
307 306 306 306 306 307 308 308 308 307 306 304 303 302 301 301 301 300 299 299 297 297 298 299 300 301 301 301 301 301 301 301 301 301 300 299 297 297 297 298 299 300 299 295 296 299 298 296 294 293 291 288 286 285 284 283 280 278 276 274 272 272 271 270 268 267 265 264 264 263 263 263 263 262
307 307 307 307 307 308 308 307 306 305 305 304 303 302 302 301 301 299 297 296 296 298 300 301 301 301 301 301 301 301 301 301 301 300 299 299 298 298 298 299 300 301 298 295 297 300 299 296 295 294 293 289 286 283 282 281 280 278 277 274 272 270 269 269 269 268 267 266 266 266 266 266 266 267
307 308 308 308 308 308 307 307 306 305 304 303 303 303 302 301 300 299 297 297 298 299 299 300 300 300 300 300 300 299 300 300 300 300 300 300 300 299 299 300 301 301 298 296 298 300 300 299 297 296 294 292 290 287 284 281 279 278 276 274 271 268 267 267 268 268 268 268 268 268 268 268 268 269
309 309 309 308 308 308 307 306 305 304 304 304 304 303 303 302 302 301 300 299 299 299 299 299 299 299 299 298 299 299 300 300 299 299 299 299 299 299 300 301 301 300 298 298 300 301 302 301 299 297 295 293 292 289 286 283 280 277 276 273 271 268 267 266 266 268 269 269 269 268 268 268 269 270
310 309 309 309 308 307 306 305 305 305 305 306 306 305 304 303 301 301 300 300 300 300 300 300 299 298 298 298 299 299 300 299 299 299 299 299 299 301 302 302 302 301 300 300 301 302 302 302 300 298 296 294 292 289 285 282 280 279 276 274 273 272 271 270 270 270 270 270 270 269 269 269 270 271
310 309 308 308 307 306 306 306 306 307 308 307 306 304 303 301 301 300 301 301 301 301 300 299 298 298 299 299 299 298 298 298 299 299 299 300 301 302 302 302 301 300 301 301 301 301 302 302 300 298 297 296 295 292 287 284 284 284 279 276 276 277 278 277 275 274 273 272 272 272 272 272 272 270
308 308 307 307 307 307 307 307 307 308 308 306 304 303 302 301 301 302 302 302 302 301 300 300 300 299 299 298 298 297 297 298 298 299 300 301 301 302 301 299 298 298 300 301 301 301 301 301 299 297 297 297 296 294 292 291 291 290 285 281 280 281 282 282 281 280 279 277 276 276 275 274 270 265
307 307 307 307 307 307 307 307 307 307 306 305 303 302 302 302 303 303 303 303 302 301 301 301 301 300 299 299 299 299 299 299 300 301 302 302 301 301 300 298 297 298 300 301 301 300 300 300 298 297 297 298 298 298 298 297 296 294 291 289 286 285 286 287 288 288 286 282 279 277 276 273 267 262
307 306 306 306 307 307 307 306 306 306 305 304 303 302 303 304 305 305 305 304 303 303 303 304 303 302 302 301 301 301 300 301 301 302 302 301 300 299 298 297 297 298 300 300 300 300 301 300 299 299 300 301 302 301 301 301 300 298 297 295 294 293 291 290 291 291 288 282 277 275 274 271 266 262
306 306 306 306 307 307 306 306 306 305 304 304 304 305 306 307 308 308 307 306 305 305 305 305 304 303 302 301 301 301 301 301 302 302 302 300 299 298 297 296 296 297 298 298 299 300 301 301 301 302 303 304 305 304 303 302 302 301 300 299 299 300 299 297 297 296 290 283 276 273 272 269 264 262
307 307 307 306 306 306 305 304 304 305 306 307 307 308 309 309 309 309 307 305 305 306 306 305 304 304 303 303 302 302 303 303 303 302 301 300 298 297 296 296 296 296 296 296 297 298 300 301 301 303 304 306 308 307 304 301 300 301 303 304 304 305 306 307 307 305 296 284 276 272 269 265 262 262
306 306 306 306 305 304 303 303 305 307 309 309 309 309 309 308 308 308 307 306 307 308 308 308 308 308 308 307 306 305 305 304 303 301 299 298 296 296 296 295 296 296 295 296 296 297 298 299 300 302 305 307 309 308 305 303 304 305 308 310 310 309 310 312 313 310 300 287 275 269 263 261 261 262
306 306 305 305 304 304 304 306 309 310 310 309 308 308 307 307 309 309 309 310 311 312 312 313 313 312 312 311 309 308 305 303 301 299 298 297 297 296 296 295 295 295 295 296 296 297 298 298 298 300 303 306 308 308 306 307 309 309 311 312 312 311 313 316 315 309 299 287 276 266 256 254 257 259
306 306 306 305 305 305 306 308 310 310 309 308 308 308 307 308 310 311 312 313 315 316 316 316 316 315 314 313 312 309 306 303 301 300 300 299 298 297 296 296 296 296 296 297 297 297 298 299 299 299 300 302 303 304 305 307 309 309 310 313 314 314 315 317 316 308 296 287 278 265 251 248 253 257
306 306 306 306 305 305 306 308 310 310 310 310 311 311 310 311 312 314 316 318 320 321 320 319 319 318 317 316 315 313 310 307 305 303 302 300 299 298 297 297 297 298 298 298 298 298 300 300 300 300 301 301 301 302 304 307 310 311 313 316 318 317 317 318 319 311 297 287 279 267 253 245 248 255
306 307 306 305 304 305 308 310 310 310 311 312 312 311 312 315 318 320 321 323 324 325 324 323 322 321 319 318 317 314 311 309 306 304 303 301 300 299 299 299 299 299 299 299 299 299 301 301 301 302 302 302 303 304 305 307 310 312 314 316 318 319 319 320 324 318 299 285 277 269 255 242 242 250
306 307 305 303 304 306 308 309 310 310 311 311 310 311 315 320 323 325 327 328 329 330 330 329 328 325 322 320 316 313 310 308 306 305 304 303 302 302 301 300 300 300 300 299 299 300 302 303 302 303 304 304 305 307 308 309 311 314 316 317 320 322 322 322 325 321 302 284 275 268 254 242 241 244
307 306 304 303 304 306 307 308 308 309 309 309 311 315 320 324 327 330 331 333 334 334 334 334 332 329 325 321 316 312 310 308 307 306 306 305 304 304 303 302 301 301 301 300 300 301 302 303 303 303 304 305 306 308 310 312 315 319 322 323 323 324 324 323 324 322 304 281 273 267 255 244 240 238
306 303 301 302 303 304 305 307 306 305 306 309 314 319 324 327 330 333 334 336 337 337 336 335 334 332 328 325 321 318 315 312 311 309 308 307 306 306 305 304 304 303 303 302 302 302 303 303 304 304 305 305 306 307 310 314 317 321 324 324 323 323 324 323 323 321 304 277 268 265 255 244 239 234
302 300 300 300 301 302 303 304 303 303 307 312 317 322 326 328 330 333 334 335 337 337 337 336 335 334 332 330 328 326 323 319 316 314 312 311 309 308 308 307 307 306 306 305 304 304 304 304 304 304 305 306 306 307 311 314 317 320 323 325 324 324 324 324 323 322 305 273 266 264 254 243 239 238
299 298 299 299 300 301 300 300 301 305 310 315 319 324 326 328 329 331 332 334 335 336 337 338 338 337 335 333 332 330 327 323 320 317 315 313 312 310 310 309 308 308 307 306 305 304 304 303 303 304 306 306 307 309 312 315 318 321 325 326 325 326 327 327 326 323 310 280 268 263 252 240 237 239
295 295 295 296 296 296 297 299 303 308 312 316 320 323 325 326 327 328 329 331 332 334 336 338 338 338 337 335 333 330 327 323 320 317 315 314 313 312 311 310 309 308 308 306 305 305 304 303 303 303 304 306 307 309 312 315 318 322 325 327 329 330 331 330 327 321 309 291 276 261 249 241 237 238
293 293 292 291 291 291 293 298 304 308 313 317 319 322 324 325 326 327 327 329 331 333 335 337 338 338 338 336 334 331 328 324 321 319 318 317 316 315 314 313 312 311 310 309 307 306 305 304 303 302 303 305 308 310 312 316 319 323 327 331 333 334 334 333 330 323 306 291 280 263 250 246 242 239